Regional Weather Roundup
Issued by NWS

Home | Current Version | Previous Version | Text Only | Print | Product List | Glossary On
Versions: 1 2 3 4 5 6 7 8 9 10 11 12 13 14 15 16 17 18 19 20 21 22 23 24 25 26 27
000
ASUS42 KKEY 221510
RWRKEY

FLORIDA REGIONAL WEATHER ROUNDUP FOR THE FLORIDA KEYS
NATIONAL WEATHER SERVICE KEY WEST FLORIDA
1000 AM EST WED FEB 22 2017

...SOUTH FLORIDA AND THE KEYS...

CITY           SKY/WX    TMP DP  RH WIND       PRES   REMARKS
FORT MYERS     RAIN      67  64  90 SW10G20   29.79R FOG
SW REGIONAL AP RAIN      67  65  93 SW6       29.79R FOG
NAPLES         HVY RAIN  65  64  97 W7        29.79R FOG
MIAMI          CLOUDY    71  66  84 SE20G26   29.79F
WEST KENDALL   CLOUDY    76  63  64 SE10G21   29.78F
HOMESTEAD      LGT RAIN  75  67  76 SE9       29.78S
MARATHON       RAIN      71  68  90 S15G26    29.79S FOG
BOCA CHICA NAS LGT RAIN  66  66 100 SW13      29.78S
KEY WEST INTL  HVY RAIN  69  68  96 SW7       29.78F FOG

...INTERNATIONAL WEATHER...

CITY           SKY/WX    TMP DP  RH WIND       PRES   REMARKS
NASSAU BAHAMAS PTSUNNY   75  66  73 E12       29.88F
CANCUN MEXICO  SUNNY     75  59  57 W15       29.88S
COZUMEL MEXICO MOSUNNY   75  61  60 NW16      29.88R

ADJACENT COASTAL WATERS...

STATION/POSITION TIME  SKY/WX   TEMP    WIND        PRES    WAVE
                                AIR SEA DIR/SP/G            HT/PER
                 (UTC)          (F)     (DEG/KT/KT) (MB)    (FT/S)
PULASKI SHOAL LI 1500            70     330/ 13/ 15 1008.3R
SAND KEY         1450            69     280/  4/  7 1009.1S
LONG KEY         1400            74 75  190/ 16/ 17 1009.0R
MOLASSES REEF    NOT AVBL
FOWEY ROCKS      1400            74 75  120/ 28/ 30 1009.3F
Buoy 42097       1500                                 N/A     6/ 8

$$




USA.gov is the U.S. government's official web portal to all federal, state and local government web resources and services.